When you browse on this site, cookies collect data to enhance your experience and personalize the content and advertising you see.
Visit our Privacy Policy to learn more. By continuing to use the site, you agree to this use of cookies and data.
  • In Schweiz
  • Länderverzeichnis
  • Für 7 Tage
  • Wassertemperatur
  • Wetterkarte
  • Widgets
  • user-avatar
    Anmelden

    Stündliche Wetter Ryasino

    Heute, 22 Januar, Mittwoch

    Zeit Temperatur Niederschläge Wind Luftdruck Luftfeuchtigkeit
    00:00 -1°C° 0 mm 6 m/S 734 mmHg 82%
    01:00 -1°C° 0 mm 5 m/S 734 mmHg 80%
    02:00 -2°C° 0 mm 5 m/S 734 mmHg 78%
    03:00 -2°C° 0 mm 5 m/S 733 mmHg 77%
    04:00 -2°C° 0 mm 5 m/S 732 mmHg 75%
    05:00 -2°C° 0 mm 5 m/S 731 mmHg 74%
    06:00 -2°C° 0 mm 4 m/S 731 mmHg 78%
    07:00 -2°C° 0 mm 4 m/S 730 mmHg 81%
    08:00 -2°C° 0 mm 4 m/S 729 mmHg 85%
    09:00 -1°C° 0 mm 4 m/S 729 mmHg 83%
    10:00 -1°C° 0 mm 5 m/S 729 mmHg 81%
    11:00 0°C° 0 mm 5 m/S 728 mmHg 79%
    12:00 -1°C° 0.2 mm 6 m/S 728 mmHg 79%
    13:00 -2°C° 0.2 mm 7 m/S 728 mmHg 80%
    14:00 -2°C° 0.2 mm 7 m/S 727 mmHg 80%
    15:00 -3°C° 0 mm 7 m/S 728 mmHg 79%
    16:00 -3°C° 0 mm 6 m/S 728 mmHg 77%
    17:00 -4°C° 0 mm 5 m/S 728 mmHg 76%
    18:00 -4°C° 0 mm 5 m/S 729 mmHg 77%
    19:00 -5°C° 0 mm 5 m/S 730 mmHg 78%
    20:00 -5°C° 0 mm 5 m/S 731 mmHg 80%
    21:00 -5°C° 0 mm 5 m/S 731 mmHg 79%
    22:00 -5°C° 0 mm 5 m/S 731 mmHg 79%
    23:00 -5°C° 0 mm 5 m/S 731 mmHg 78%

    Morgen, 23 Januar, Donnerstag

    Zeit Temperatur Niederschläge Wind Luftdruck Luftfeuchtigkeit
    00:00 -5°C° 0 mm 6 m/S 732 mmHg 79%
    01:00 -5°C° 0 mm 6 m/S 733 mmHg 79%
    02:00 -6°C° 0 mm 7 m/S 734 mmHg 80%
    03:00 -7°C° 0 mm 7 m/S 734 mmHg 75%
    04:00 -7°C° 0 mm 7 m/S 734 mmHg 71%
    05:00 -8°C° 0 mm 7 m/S 735 mmHg 66%
    06:00 -8°C° 0 mm 7 m/S 735 mmHg 64%
    07:00 -8°C° 0 mm 6 m/S 736 mmHg 63%
    08:00 -8°C° 0 mm 6 m/S 737 mmHg 61%
    09:00 -8°C° 0 mm 6 m/S 738 mmHg 59%
    10:00 -6°C° 0 mm 6 m/S 738 mmHg 56%
    11:00 -6°C° 0 mm 6 m/S 739 mmHg 53%
    12:00 -5°C° 0 mm 6 m/S 739 mmHg 51%
    13:00 -5°C° 0 mm 6 m/S 739 mmHg 50%
    14:00 -4°C° 0 mm 6 m/S 739 mmHg 48%
    15:00 -5°C° 0 mm 6 m/S 739 mmHg 54%
    16:00 -5°C° 0 mm 5 m/S 739 mmHg 59%
    17:00 -6°C° 0 mm 5 m/S 739 mmHg 64%
    18:00 -6°C° 0 mm 5 m/S 739 mmHg 68%
    19:00 -5°C° 0 mm 4 m/S 739 mmHg 72%
    20:00 -5°C° 0 mm 4 m/S 739 mmHg 75%
    21:00 -5°C° 0 mm 4 m/S 739 mmHg 77%
    22:00 -5°C° 0 mm 3 m/S 739 mmHg 78%
    23:00 -5°C° 0 mm 3 m/S 739 mmHg 80%

    übermorgen, 24 Januar, Freitag

    Zeit Temperatur Niederschläge Wind Luftdruck Luftfeuchtigkeit
    00:00 -4°C° 0 mm 3 m/S 739 mmHg 83%
    01:00 -4°C° 0 mm 3 m/S 739 mmHg 86%
    02:00 -4°C° 0 mm 4 m/S 739 mmHg 89%
    03:00 -4°C° 0 mm 4 m/S 738 mmHg 89%
    04:00 -4°C° 0 mm 4 m/S 737 mmHg 89%
    05:00 -5°C° 0 mm 5 m/S 737 mmHg 88%
    06:00 -5°C° 0.3 mm 5 m/S 736 mmHg 91%
    07:00 -4°C° 0.3 mm 5 m/S 735 mmHg 93%
    08:00 -4°C° 0.3 mm 6 m/S 735 mmHg 96%
    09:00 -2°C° 0.3 mm 5 m/S 735 mmHg 96%
    10:00 -1°C° 0.3 mm 5 m/S 734 mmHg 95%
    11:00 0°C° 0.3 mm 5 m/S 734 mmHg 95%
    12:00 0°C° 0.1 mm 5 m/S 734 mmHg 95%
    13:00 +1°C° 0.1 mm 5 m/S 733 mmHg 94%
    14:00 +1°C° 0.1 mm 6 m/S 733 mmHg 93%
    15:00 +1°C° 0 mm 6 m/S 733 mmHg 93%
    16:00 +1°C° 0 mm 6 m/S 733 mmHg 92%
    17:00 +1°C° 0 mm 6 m/S 732 mmHg 92%
    18:00 +1°C° 0 mm 6 m/S 733 mmHg 92%
    19:00 +1°C° 0 mm 6 m/S 733 mmHg 92%
    20:00 +1°C° 0 mm 6 m/S 733 mmHg 92%
    21:00 +1°C° 0.1 mm 5 m/S 733 mmHg 93%
    22:00 +1°C° 0.1 mm 5 m/S 732 mmHg 94%
    23:00 +1°C° 0.1 mm 5 m/S 732 mmHg 95%

    25 Januar, Samstag

    Zeit Temperatur Niederschläge Wind Luftdruck Luftfeuchtigkeit
    00:00 +1°C° 0.3 mm 5 m/S 732 mmHg 95%
    01:00 +1°C° 0.3 mm 5 m/S 732 mmHg 95%
    02:00 +1°C° 0.3 mm 5 m/S 731 mmHg 95%
    03:00 +1°C° 0.4 mm 5 m/S 731 mmHg 95%
    04:00 +1°C° 0.4 mm 5 m/S 731 mmHg 95%
    05:00 +1°C° 0.4 mm 5 m/S 730 mmHg 95%
    06:00 +1°C° 0.1 mm 5 m/S 730 mmHg 94%
    07:00 0°C° 0.1 mm 5 m/S 730 mmHg 93%
    08:00 0°C° 0.1 mm 5 m/S 730 mmHg 92%
    09:00 0°C° 0.1 mm 5 m/S 730 mmHg 92%
    10:00 0°C° 0.1 mm 5 m/S 731 mmHg 91%
    11:00 0°C° 0.1 mm 5 m/S 731 mmHg 91%
    12:00 0°C° 0 mm 5 m/S 731 mmHg 87%
    13:00 +1°C° 0 mm 6 m/S 731 mmHg 83%
    14:00 +1°C° 0 mm 6 m/S 731 mmHg 79%
    15:00 -1°C° 0 mm 6 m/S 731 mmHg 79%
    16:00 -2°C° 0 mm 6 m/S 731 mmHg 80%
    17:00 -3°C° 0 mm 6 m/S 731 mmHg 80%
    18:00 -3°C° 0 mm 6 m/S 731 mmHg 81%
    19:00 -3°C° 0 mm 7 m/S 732 mmHg 81%
    20:00 -3°C° 0 mm 7 m/S 732 mmHg 82%
    21:00 -3°C° 0.1 mm 6 m/S 733 mmHg 80%
    22:00 -3°C° 0.1 mm 6 m/S 734 mmHg 77%
    23:00 -4°C° 0.1 mm 5 m/S 734 mmHg 75%

    26 Januar, Sonntag

    Zeit Temperatur Niederschläge Wind Luftdruck Luftfeuchtigkeit
    00:00 -4°C° 0 mm 5 m/S 735 mmHg 75%
    01:00 -5°C° 0 mm 5 m/S 735 mmHg 75%
    02:00 -5°C° 0 mm 5 m/S 736 mmHg 75%
    03:00 -5°C° 0 mm 4 m/S 737 mmHg 76%
    04:00 -5°C° 0 mm 4 m/S 737 mmHg 77%
    05:00 -5°C° 0 mm 4 m/S 738 mmHg 78%
    06:00 -5°C° 0 mm 4 m/S 738 mmHg 79%
    07:00 -5°C° 0 mm 3 m/S 739 mmHg 80%
    08:00 -5°C° 0 mm 3 m/S 739 mmHg 81%
    09:00 -4°C° 0 mm 3 m/S 740 mmHg 78%
    10:00 -2°C° 0 mm 3 m/S 740 mmHg 74%
    11:00 -1°C° 0 mm 3 m/S 741 mmHg 71%
    12:00 -1°C° 0 mm 3 m/S 741 mmHg 71%
    13:00 -1°C° 0 mm 3 m/S 741 mmHg 71%
    14:00 -1°C° 0 mm 2 m/S 741 mmHg 70%
    15:00 -1°C° 0 mm 2 m/S 742 mmHg 74%
    16:00 -2°C° 0 mm 2 m/S 742 mmHg 78%
    17:00 -2°C° 0 mm 2 m/S 742 mmHg 82%
    18:00 -2°C° 0 mm 2 m/S 742 mmHg 83%
    19:00 -2°C° 0 mm 3 m/S 742 mmHg 83%
    20:00 -2°C° 0 mm 3 m/S 742 mmHg 83%
    21:00 -2°C° 0 mm 3 m/S 742 mmHg 85%
    22:00 -2°C° 0 mm 3 m/S 742 mmHg 88%
    23:00 -1°C° 0 mm 3 m/S 742 mmHg 90%

    27 Januar, Montag

    Zeit Temperatur Niederschläge Wind Luftdruck Luftfeuchtigkeit
    00:00 -1°C° 0 mm 3 m/S 742 mmHg 89%
    01:00 -1°C° 0 mm 3 m/S 742 mmHg 87%
    02:00 -1°C° 0 mm 3 m/S 742 mmHg 86%
    03:00 -2°C° 0 mm 4 m/S 741 mmHg 85%
    04:00 -2°C° 0 mm 4 m/S 741 mmHg 84%
    05:00 -2°C° 0 mm 4 m/S 741 mmHg 83%
    06:00 -2°C° 0 mm 4 m/S 740 mmHg 85%
    07:00 -2°C° 0 mm 4 m/S 740 mmHg 86%
    08:00 -2°C° 0 mm 4 m/S 740 mmHg 88%
    09:00 -2°C° 0 mm 4 m/S 740 mmHg 86%
    10:00 -2°C° 0 mm 4 m/S 740 mmHg 84%
    11:00 -2°C° 0 mm 4 m/S 740 mmHg 83%
    12:00 -2°C° 0 mm 4 m/S 739 mmHg 86%
    13:00 -2°C° 0 mm 4 m/S 739 mmHg 90%
    14:00 -2°C° 0 mm 5 m/S 738 mmHg 93%
    15:00 -2°C° 0 mm 4 m/S 738 mmHg 94%
    16:00 -2°C° 0 mm 4 m/S 738 mmHg 95%
    17:00 -2°C° 0 mm 4 m/S 738 mmHg 95%
    18:00 -2°C° 0 mm 4 m/S 738 mmHg 94%
    19:00 -1°C° 0 mm 4 m/S 738 mmHg 93%
    20:00 -1°C° 0 mm 4 m/S 738 mmHg 92%
    21:00 -1°C° 0 mm 4 m/S 738 mmHg 92%
    22:00 -2°C° 0 mm 4 m/S 738 mmHg 92%
    23:00 -2°C° 0 mm 4 m/S 738 mmHg 91%
    Mehr zeigen